Tracking 29033 objects as of 22-Jun-2024
HD Live streaming from Space Station
objects crossing your sky now

LANDSAT 2

Track LANDSAT 2 now!
10-day predictions
LANDSAT 2 is classified as:


NORAD ID: 7615
Int'l Code: 1975-004A
Perigee: 905.1 km
Apogee: 918.7 km
Inclination: 98.9 °
Period: 103.1 minutes
Semi major axis: 7282 km
RCS: 3.0869 m2 (large)
Launch date: January 22, 1975
Source: United States (US)
Launch site: AIR FORCE WESTERN TEST RANGE (AFWTR)
Your satellite tracking list
Your tracking list is empty




NASA's NSSDC Master Catalog

Two Line Element Set (TLE):
1 07615U 75004A   24173.88207119  .00000144  00000-0  13406-3 0  9994
2 07615  98.9329 134.4438 0009318 139.3360 220.8500 13.96835937517862
Source of the keplerian elements: AFSPC